Location: Beetenbrück
(52.8113°N, 9.5946°E)
Time: 22:29:07
(UTC+00:00)

NOSS 3-1 (A) - Pass Details

Date: 14 April 2026
Orbit: 613 x 1593 km, 63.4° (Epoch: 10 January)

Event Time Altitude Azimuth Distance (km) Brightness Sun altitude
Rises 22:42:24 0° 313° (NW) 3,656 7.3 -26.9°
Reaches altitude 10° 22:44:44 10° 312° (NW) 2,832 6.6 -27.0°
Maximum altitude 22:51:34 78° 227° (SW) 1,251 3.8 -27.2°
Enters shadow 22:53:31 55° 156° (SSE) 1,499 4.0 -27.2°
